This is the latest recevied weather packets stored in our database for station/object KE8DAF-15. If no packets are shown the sender has not sent any weather packets the latest 10 day(s).
| Time | Temp. | Humidity | Pressure | Rain* | Wind** | Luminosity | Snow |
|---|---|---|---|---|---|---|---|
| 1777067378 | 5.56° C | 90% | 994.6 hPa | 1.02 mm | - | - | - |
| 1777067079 | 5.56° C | 90% | 994.7 hPa | 1.02 mm | - | - | - |
| 1777066778 | 5.56° C | 89% | 994.9 hPa | 1.52 mm | - | - | - |
| 1777066478 | 5.56° C | 89% | 994.8 hPa | 1.52 mm | - | - | - |
| 1777066179 | 5.56° C | 89% | 994.6 hPa | 1.27 mm | - | - | - |
| 1777065878 | 5.56° C | 88% | 994.6 hPa | 1.27 mm | - | - | - |
| 1777065578 | 6.11° C | 88% | 994.6 hPa | 1.02 mm | - | - | - |
| 1777065278 | 6.11° C | 87% | 994.4 hPa | 1.02 mm | - | - | - |
| 1777064978 | 6.11° C | 86% | 994.4 hPa | 0.76 mm | - | - | - |
| 1777064678 | 6.11° C | 84% | 994.4 hPa | 0.76 mm | - | - | - |
| 1777064378 | 6.67° C | 84% | 994.3 hPa | 0.76 mm | - | - | - |
| 1777064078 | 6.67° C | 81% | 994.3 hPa | 0.51 mm | - | - | - |
| 1777063778 | 7.78° C | 81% | 994 hPa | 0.51 mm | - | - | - |
| 1777063478 | 8.33° C | 75% | 994.4 hPa | 0.51 mm | - | - | - |
| 1777063178 | 8.89° C | 66% | 994.7 hPa | 0 mm | - | - | - |
| 1777062878 | 8.89° C | 58% | 994.6 hPa | 0 mm | - | - | - |
| 1777062578 | 8.89° C | 57% | 994.9 hPa | 0 mm | - | - | - |
| 1777062278 | 9.44° C | 57% | 994.2 hPa | 0 mm | - | - | - |
| 1777061978 | 9.44° C | 56% | 993.9 hPa | 0 mm | - | - | - |
| 1777061678 | 9.44° C | 57% | 993.7 hPa | 0 mm | - | - | - |
| 1777061378 | 9.44° C | 56% | 993.9 hPa | 0 mm | - | - | - |
| 1777061078 | 10° C | 56% | 993.8 hPa | 0 mm | - | - | - |
| 1777060778 | 10° C | 56% | 993.8 hPa | 0 mm | - | - | - |
| 1777060478 | 10.56° C | 55% | 994 hPa | 0 mm | - | - | - |
| 1777060178 | 10° C | 55% | 993.8 hPa | 0 mm | - | - | - |
* Rain latest hour (hover to see other rain measurements)
** Current wind speed in m/s (hover to see current wind gust speed)